Location: Newark
(42.8481°N, 0.4872°E)
Time: 08:55:13
(UTC+00:00)

Transit 2A Rocket - Pass Details

Date: 04 November 2020
Orbit: 588 x 914 km, 66.7° (Epoch: 29 November)

Event Time Altitude Azimuth Distance (km) Brightness Sun altitude
Rises 16:13:00 0° 331° (NNW) 3,267 8.3 4.8°
Reaches altitude 10° 16:15:34 10° 336° (NNW) 2,281 7.5 4.3°
Maximum altitude 16:20:39 55° 54° (NE) 843 5.0 3.5°
Drops below altitude 10° 16:25:14 10° 133° (SE) 2,066 7.0 2.7°
Sets 16:27:28 0° 138° (SE) 2,931 7.8 2.3°
